Location: Stamford Observatory
(41.1241°N, 73.5498°W)
Time: 14:42:52
(UTC-04:00)

Daily predictions for brighter satellites

Satellite Brightness Start Highest point End
(mag) Time Altitude Azimuth Time Altitude Azimuth Time Altitude Azimuth
Cosmos 990 Rocket 4.5 20:41:02 10° SSW 20:46:12 68° WNW 20:51:26 10° NNE
Envisat 3.0 20:42:09 10° SSE 20:47:12 82° ENE 20:52:19 10° N
TIMED 4.5 20:47:15 10° S 20:51:34 67° ESE 20:55:56 10° NNE
Tsikada Rocket 4.4 20:46:02 10° SSW 20:52:13 69° W 20:58:23 10° N
Cosmos 1939 Rocket 3.0 20:48:37 10° SSE 20:52:43 68° ENE 20:56:50 10° N
Helios 1A 3.3 20:49:53 10° SSE 20:53:56 52° ENE 20:58:03 10° N
Cosmos 2221 Rocket 4.0 20:51:05 10° N 20:55:21 44° ENE 20:59:37 10° SSE
Cosmos 1825 3.1 20:54:34 10° SSE 20:57:50 29° E 21:01:09 10° NNE
SJ-11-01 4.3 20:58:18 10° SSE 21:03:01 84° ENE 21:07:45 10° NNW
Meteor 2-3 Rocket 4.0 20:57:33 10° SSW 21:03:15 76° W 21:08:56 10° N
Cosmos 1125 Rocket 3.6 20:58:11 10° S 21:03:16 53° ESE 21:08:21 10° NNE
Cosmos 1634 Rocket 4.0 20:58:47 10° N 21:05:08 79° E 21:11:27 10° S
Cosmos 2344 3.9 21:03:57 10° S 21:11:07 44° ESE 21:18:46 10° NE
USA 186 3.9 21:10:01 10° SSW 21:12:15 22° W 21:14:38 10° NW
Cosmos 1943 Rocket 2.2 21:09:20 10° S 21:14:51 63° ESE 21:20:20 10° NNE
Cosmos 1782 2.9 21:11:33 10° N 21:15:31 59° E 21:19:11 11° SSE
deb Kosmos-1763 4.2 21:18:01 10° NNW 21:21:46 60° ENE 21:24:31 17° SSE
Cosmos 158 Rocket 3.8 21:18:51 10° NNW 21:23:44 70° ENE 21:27:45 15° SSE
Resurs 01 Rocket 4.1 21:24:13 10° SW 21:27:32 21° W 21:30:54 10° NW
Okean 1-7 3.1 21:23:56 10° N 21:28:22 81° W 21:32:44 10° S
DELTA 2 R/B(2) 2.8 21:28:33 10° WSW 21:30:15 56° S 21:30:23 52° SSE
SAR-Lupe-4 3.5 21:27:23 14° SSE 21:30:21 85° ENE 21:33:56 10° NNW
Cosmos 1340 2.8 21:28:12 10° N 21:31:57 58° E 21:34:23 20° SSE
NOAA 11 4.2 21:29:43 13° SSE 21:34:37 76° ENE 21:40:07 10° N
Cosmos 2279 Rocket 4.0 21:30:14 10° N 21:36:32 82° E 21:42:29 11° S
Cosmos 1862 3.5 21:33:56 16° SSE 21:36:53 49° E 21:40:44 10° NNE
Meteor 1-29 3.5 21:37:16 10° N 21:40:43 61° WNW 21:44:09 10° SSW
YAOGAN 6 3.8 21:37:48 10° S 21:41:20 41° W 21:44:50 10° NNW
TRAILBLAZER 4.5 21:37:16 10° SSW 21:41:44 66° ESE 21:46:16 10° NE
H-2A R/B 2.8 21:40:00 20° SE 21:43:10 40° ENE 21:48:06 10° N
CZ-4B DEB 3.7 21:41:28 13° SSW 21:43:46 40° W 21:46:34 10° NNW
Terra 3.6 21:42:01 15° E 21:43:57 18° ENE 21:47:11 10° NNE
Cosmos 2369 Rocket 3.5 21:38:53 10° SW 21:44:15 44° WNW 21:49:43 10° NNE
ISS -1.2 21:42:23 10° WNW 21:45:02 22° NNW 21:47:42 10° NNE
Tiangong 2 3.7 21:45:24 10° SW 21:46:09 11° SW 21:46:53 10° SSW
ERS-1 Rocket 3.0 21:43:43 15° SSE 21:47:52 83° WSW 21:52:56 10° NNW
Helios 1B rocket 3.6 21:44:03 10° N 21:47:58 44° WNW 21:51:52 10° SW
SAR-Lupe-1 4.5 21:49:32 19° S 21:51:56 59° W 21:55:29 10° NNW
Cosmos 1606 3.5 21:50:02 10° NNW 21:53:41 48° W 21:56:41 14° SSW
GPS 2-04 Rocket1 3.9 21:52:08 10° WSW 21:55:05 22° SSW 21:55:27 22° S
Cosmos 1833 4.2 21:50:06 10° NNW 21:55:55 90° NE 21:59:28 24° SSE
Lacrosse 4 Rocket 1.7 21:52:57 10° NNW 21:57:26 72° WSW 21:59:44 28° SSE
MetOp-B 4.1 21:53:50 19° SSE 21:57:45 84° WSW 22:03:09 10° NNW
USA 215 3.4 21:53:28 21° ESE 21:58:04 70° NE 22:04:36 10° NW
Cosmos 1733 Rocket 2.9 21:56:23 22° S 21:59:02 70° E 22:03:21 10° NNE
H-2A ROCKET BODY 3.9 21:56:04 10° SSW 21:58:45 17° S 21:58:45 17° S
ATLAS 5 CENTAUR R/B 2.6 21:54:29 10° NW 22:00:31 69° WSW 22:04:39 23° SSE
Cosmos 2297 Rocket 4.4 22:00:33 10° NNE 22:03:14 13° NE 22:05:55 10° ENE
Milstar 3 3.9 21:53:58 10° WSW 22:04:17 35° S 22:07:43 25° SE
ATLAS CENTAUR R/B 1.8 22:05:12 36° ESE 22:05:12 36° ESE 22:08:31 10° NE
Cosmos 1437 3.4 22:06:09 10° N 22:09:06 38° ENE 22:09:06 38° ENE
Cosmos 1656 Rocket 3.5 22:03:55 10° SSW 22:09:21 78° ESE 22:14:53 10° NNE
SPOT 5 3.1 22:06:19 26° SSE 22:09:25 88° ENE 22:14:43 10° NNW
ARGOS 3.2 22:10:08 23° S 22:13:30 74° WSW 22:18:53 10° NNW
Meteor 2-20 4.4 22:10:02 24° SSE 22:13:44 64° E 22:19:46 10° NNE
Alouette 2 Rocket 4.4 22:06:56 10° S 22:14:46 86° E 22:19:45 10° NNE
Lacrosse 5 rocket 4.1 22:13:57 10° WNW 22:16:25 17° NNW 22:18:56 10° NNE
Sich 1 Rocket 3.9 22:18:37 41° ESE 22:19:13 44° E 22:23:25 10° NNE
CENTAUR R/B 3.7 22:14:19 10° WSW 22:20:09 44° NW 22:26:47 10° NNE
Cosmos 1346 4.1 22:21:05 10° N 22:22:51 33° NNE 22:22:51 33° NNE
Cosmos 1975 Rocket 4.2 22:21:20 10° NNE 22:25:14 28° ENE 22:25:33 28° E
Meteor 1-27 Rocket 4.3 22:22:20 10° NNW 22:27:53 53° W 22:31:31 21° SSW
Cosmos 2026 Rocket 4.2 22:30:33 37° SE 22:32:26 49° E 22:38:26 10° NNE
Cosmos 2251 Rocket 3.4 22:27:40 10° NNW 22:32:56 77° ENE 22:34:28 47° SE
CARTOSAT-1 3.8 22:33:13 49° ESE 22:33:46 53° ENE 22:38:00 10° N
SL-08 RB Rocket 4.4 22:32:59 30° SSW 22:35:01 51° W 22:39:35 10° NNW
Cosmos 1378 Rocket 3.5 22:31:57 10° N 22:36:23 69° E 22:37:00 59° SE
Cosmos 1674 Rocket 3.8 22:32:25 10° NNW 22:36:42 63° W 22:37:55 43° SSW
SPOT 1/Viking Rocket 3.8 22:39:33 35° SSW 22:41:38 63° W 22:46:48 10° NNW
DMSP B5D2-2 3.9 22:36:25 10° NNE 22:41:40 85° ESE 22:43:38 40° S
Okean 3 3.3 22:39:17 10° N 22:43:29 87° W 22:43:55 71° S
IGS 5A 3.4 22:43:48 64° E 22:43:58 65° ENE 22:48:06 10° N
H-2A R/B 2.4 22:50:34 46° ENE 22:50:34 46° ENE 22:54:24 10° N
Meteor 1-25 Rocket 4.3 22:50:55 50° SSE 22:52:12 64° E 22:57:59 10° NNE
Cosmos 2227 Rocket 3.1 22:48:45 10° N 22:53:55 35° ENE 22:55:17 31° E
S3M 4.4 22:52:39 10° N 22:58:30 45° ENE 22:59:37 41° ESE
Cosmos 1092 Rocket 4.4 22:56:29 24° SSW 23:00:12 59° W 23:06:17 10° N
Cosmos 2219 3.3 22:57:02 10° NNW 23:02:47 72° WSW 23:04:04 53° S
Landsat 7 4.4 23:05:14 43° SW 23:06:08 49° W 23:10:46 10° NNW
GEOS 3 Rocket 3.5 23:05:52 61° ESE 23:06:44 77° NE 23:11:59 10° NNW
Cosmos 1812 3.1 23:04:26 10° N 23:07:47 63° NNW 23:07:47 63° NNW
Cosmos 1553 Rocket 4.0 23:09:22 10° N 23:15:43 67° E 23:16:48 57° SE
Cosmos 1980 Rocket 4.4 23:20:06 11° ENE 23:20:06 11° ENE 23:20:36 10° ENE
Cosmos 2369 4.1 23:20:17 46° E 23:20:17 46° E 23:25:09 10° NE
Cosmos 1867 4.4 23:15:36 10° NW 23:20:33 36° WSW 23:21:08 35° SW
Terra 2.3 23:20:55 48° WSW 23:21:18 49° W 23:25:56 10° NNW
ISS -0.6 23:20:48 10° NNW 23:22:25 13° N 23:24:02 10° NNE
H-2A R/B 3.7 23:20:37 21° SW 23:22:39 26° W 23:27:05 10° NW
CZ-4B R/B 3.5 23:18:48 10° NNE 23:23:15 63° ENE 23:23:15 63° ENE
Okean 2 Rocket 3.3 23:29:03 67° NW 23:29:03 67° NW 23:33:06 10° N
Cosmos 405 Rocket 4.0 23:27:23 10° NNW 23:29:59 36° NW 23:29:59 36° NW
Meteor 1-11 Rocket 4.2 23:33:20 48° E 23:33:20 48° E 23:38:55 10° NNE
APEX 4.3 23:29:32 10° NNW 23:32:37 43° NNW 23:32:37 43° NNW
Gbstr 26 Del rocket 3.7 23:31:42 10° NW 23:35:02 47° NNW 23:35:02 47° NNW
Cosmos 2056 Rocket 4.4 23:40:28 36° ENE 23:40:28 36° ENE 23:43:59 10° NNE
deb Chang Zheng 4 4.0 23:35:23 10° N 23:39:30 59° NW 23:39:30 59° NW
DELTA 2 DEB (DPAF) 4.5 23:40:35 64° NNW 23:40:35 64° NNW 23:44:24 10° NNW
USA 215 4.1 23:40:49 33° SW 23:41:20 33° SW 23:47:10 10° WNW
CZ-4C R/B 4.2 23:43:49 52° NNW 23:43:49 52° NNW 23:46:57 10° NNW
Cosmos 1697 Rocket 3.7 23:45:11 34° ENE 23:45:11 34° ENE 23:48:59 10° NE
ATLAS CENTAUR R/B 3.6 23:41:20 12° W 23:43:58 21° NW 23:46:58 10° N
Cosmos 2266 Rocket 4.0 23:44:11 62° ESE 23:44:23 63° E 23:50:26 10° NNE
CZ-2C R/B 3.5 23:45:38 49° ENE 23:45:38 49° ENE 23:50:03 10° N
Cosmos 2297 Rocket 2.1 23:42:34 10° NNW 23:48:16 77° ENE 23:48:21 77° ENE
BREEZE-M DEB (TANK) 4.3 23:31:57 10° WNW 23:49:50 74° SW 23:50:53 63° SSE
ARGOS Delta rocket 4.4 23:50:47 10° N 23:54:44 48° WNW 23:54:44 48° WNW
